[[{"header":{"parameterUnit":"m.s-1","parameterCategory":1,"la1":30.2991,"la2":30.254,"lo1":-89.0895,"lo2":-89.0444,"dy":0.0017,"dx":0.0017,"nx":28,"ny":28,"refTime":"2025-11-22T09:00:00:Z","depth":0,"parameterNumber":2,"parameterNumberName":"U-component_of_WINDS"},"data":[0,0,0,0,0,0,0,0,0,0,0,0,0,0,0,0,0,0,0,0,0,0,0,0,0,0,0,0,0,0,0,0,0,0,0,0,0,0,0,0,0,0,0,0,0,0,0,0,0,0,0,0,0,0,0,0,0,0,-0.4008,-0.4008,0,-0.4049,-0.4049,-0.405,-0.406,-0.406,-0.406,-0.4059,-0.4104,-0.4106,-0.4107,0,0,0,0,0,0,0,0,0,0,0,0,0,-0.394,-0.3941,-0.4008,-0.4008,-0.4009,-0.4049,-0.4049,-0.405,-0.406,-0.406,-0.406,-0.4059,-0.4104,-0.4106,-0.4107,0,0,0,0,0,0,0,0,0,0,0,0,0,-0.3974,-0.3942,-0.4008,-0.4019,-0.402,-0.4049,-0.4049,-0.405,-0.406,-0.406,-0.406,-0.4059,-0.4103,-0.4105,-0.4107,-0.4129,0,0,-0.4114,-0.4115,0,0,0,0,0,0,0,0,-0.3972,-0.3977,-0.4017,-0.4018,-0.402,-0.4049,-0.4042,-0.4077,-0.406,-0.4045,-0.4059,-0.4059,-0.4086,-0.409,-0.4099,-0.4131,-0.4133,-0.4114,-0.4116,-0.4117,-0.4117,0,0,0,0,0,0,0,-0.397,-0.3975,-0.4024,-0.4017,-0.4019,-0.4022,-0.4027,-0.4049,-0.4068,-0.4047,-0.4047,-0.4052,-0.4087,-0.4096,-0.41,-0.4134,-0.4114,-0.4116,-0.4117,-0.4118,-0.4184,-0.4184,0,0,0,0,0,0,-0.3965,-0.3973,-0.4023,-0.4026,-0.3994,-0.4024,-0.4029,-0.404,-0.4067,-0.4071,-0.4052,-0.4052,-0.4093,-0.4097,-0.4101,-0.4127,-0.4117,-0.4119,-0.412,-0.4183,-0.4184,-0.4184,0,0,0,0,0,0,-0.3964,-0.397,-0.4021,-0.3999,-0.4006,-0.4025,-0.4038,-0.4041,-0.405,-0.4072,-0.4075,-0.4058,-0.4093,-0.4098,-0.4121,-0.4129,-0.412,-0.4121,-0.4183,-0.4184,-0.4184,-0.418,0,0,0,0,0,0,-0.3962,-0.3969,-0.3977,-0.3999,-0.4007,-0.404,-0.4039,-0.4042,-0.4054,-0.4054,-0.4078,-0.4082,-0.4093,-0.4118,-0.4123,-0.4132,-0.4123,-0.4182,-0.4183,-0.4184,-0.418,-0.418,-0.4181,0,0,0,0,0,-0.3959,-0.3976,-0.3978,-0.3984,-0.4018,-0.4041,-0.4045,-0.4057,-0.4054,-0.4063,-0.4076,-0.4081,-0.4127,-0.412,-0.4127,-0.4136,-0.4182,-0.4183,-0.4184,-0.4179,-0.418,-0.4181,0,0,0,0,0,0,-0.3955,-0.3979,-0.3981,-0.4005,-0.4021,-0.4042,-0.4054,-0.4058,-0.4076,-0.4075,-0.409,-0.4095,-0.4117,-0.4129,-0.4121,-0.4157,-0.4154,-0.4157,-0.4149,-0.415,-0.4151,-0.4148,-0.4125,0,0,0,0,0,-0.3957,-0.3973,-0.3993,-0.4012,-0.4019,-0.4035,-0.4045,-0.4053,-0.407,-0.4077,-0.4092,-0.4109,-0.4127,-0.4139,-0.4157,-0.4181,-0.4186,-0.419,-0.4191,-0.4191,-0.4193,-0.4206,-0.4207,-0.4188,-0.4188,-0.4188,0,0,-0.3961,-0.3976,-0.3985,-0.4011,-0.4024,-0.4041,-0.4041,-0.4059,-0.4071,-0.408,-0.4102,-0.4114,-0.4134,-0.4157,-0.4168,-0.4167,-0.42,-0.4193,-0.4193,-0.4195,-0.4207,-0.4209,-0.421,-0.4188,-0.4188,-0.4188,0,0,-0.3977,-0.399,-0.4006,-0.4019,-0.4038,-0.4047,-0.4051,-0.4072,-0.4079,-0.4102,-0.4108,-0.4123,-0.4154,-0.4168,-0.4179,-0.4197,-0.4202,-0.4202,-0.4207,-0.4219,-0.422,-0.4222,-0.4228,-0.423,-0.4204,-0.4204,-0.4204,0,-0.398,-0.4005,-0.4015,-0.4032,-0.4043,-0.4049,-0.4066,-0.4078,-0.4102,-0.411,-0.4108,-0.4146,-0.416,-0.4186,-0.419,-0.4199,-0.4203,-0.42,-0.4219,-0.4221,-0.4222,-0.4228,-0.423,-0.4204,-0.4204,-0.4204,-0.4204,0,-0.4007,-0.4024,-0.4035,-0.4057,-0.4069,-0.4086,-0.4098,-0.4109,-0.4115,-0.4125,-0.4146,-0.4163,-0.4184,-0.419,-0.4197,-0.4216,-0.4215,-0.4216,-0.4214,-0.4224,-0.423,-0.4232,-0.4204,-0.4204,-0.4204,-0.4204,0,0,-0.4025,-0.4049,-0.4053,-0.4062,-0.4082,-0.4095,-0.4112,-0.4131,-0.414,-0.4156,-0.417,-0.4195,-0.4195,-0.4207,-0.4215,-0.4225,-0.4237,-0.4225,-0.4225,-0.4226,-0.4259,-0.4259,-0.4261,-0.424,-0.424,-0.4241,-0.4257,0,-0.4043,-0.4072,-0.408,-0.4105,-0.412,-0.4126,-0.414,-0.4154,-0.4163,-0.4177,-0.4188,-0.4205,-0.4204,-0.4211,-0.4222,-0.4234,-0.4244,-0.4232,-0.4254,-0.4254,-0.4249,-0.4264,-0.4264,-0.4279,-0.426,-0.426,-0.426,0,-0.407,-0.4084,-0.411,-0.4126,-0.4132,-0.4145,-0.4162,-0.4175,-0.4191,-0.4197,-0.4209,-0.4215,-0.4232,-0.4228,-0.4252,-0.4244,-0.4252,-0.4259,-0.426,-0.4263,-0.4259,-0.4268,-0.4284,-0.4287,-0.4264,-0.4264,-0.4264,0,-0.4079,-0.4105,-0.4123,-0.4131,-0.415,-0.4159,-0.4167,-0.4182,-0.4192,-0.4207,-0.4214,-0.4231,-0.424,-0.4253,-0.4263,-0.4259,-0.4286,-0.4283,-0.4292,-0.4291,-0.4298,-0.4298,-0.4316,-0.4303,-0.4303,-0.4303,-0.4303,0,-0.41,-0.4115,-0.4127,-0.4139,-0.4156,-0.4165,-0.4182,-0.4191,-0.4203,-0.4216,-0.4222,-0.4235,-0.4247,-0.4261,-0.4269,-0.4287,-0.4291,-0.4297,-0.4299,-0.4296,-0.4296,-0.4303,-0.4303,-0.4303,-0.4303,-0.4303,-0.4303,0,-0.4114,-0.4123,-0.4143,-0.4159,-0.4163,-0.4175,-0.4189,-0.42,-0.4208,-0.4224,-0.4229,-0.4242,-0.4258,-0.4269,-0.4291,-0.4296,-0.4316,-0.4317,-0.431,-0.4311,-0.4319,-0.4318,-0.4344,-0.4347,-0.4331,-0.4331,-0.4331,0,-0.4127,-0.4139,-0.4155,-0.4163,-0.4171,-0.4185,-0.4195,-0.4203,-0.4213,-0.423,-0.4239,-0.4255,-0.4269,-0.4295,-0.4307,-0.4323,-0.4325,-0.4333,-0.4328,-0.4324,-0.4325,-0.4324,-0.4325,-0.4334,-0.4334,-0.4334,-0.4334,0,-0.4149,-0.4152,-0.4165,-0.4179,-0.419,-0.4202,-0.4214,-0.4221,-0.4231,-0.4242,-0.4258,-0.4268,-0.4288,-0.4304,-0.4321,-0.433,-0.4334,-0.4335,-0.4338,-0.4336,-0.4332,-0.4334,-0.4313,-0.4335,-0.4335,-0.4335,-0.4335,-0.4335,-0.4164,-0.4174,-0.4186,-0.42,-0.4209,-0.4219,-0.423,-0.4238,-0.4251,-0.4268,-0.4271,-0.4288,-0.4301,-0.4323,-0.4332,-0.4345,-0.4345,-0.4349,-0.435,-0.4351,-0.4351,-0.4328,-0.4349,-0.4349,-0.4349,-0.4349,-0.4349,0,-0.4186,-0.4193,-0.4206,-0.4221,-0.4231,-0.4232,-0.4244,-0.4253,-0.4267,-0.4279,-0.4291,-0.4308,-0.4323,-0.4335,-0.435,-0.4358,-0.436,-0.4362,-0.4362,-0.4364,-0.4351,-0.4347,-0.436,-0.436,-0.436,-0.436,-0.436,-0.436,-0.4199,-0.4215,-0.4219,-0.424,-0.4247,-0.4262,-0.4269,-0.4279,-0.4287,-0.4306,-0.4318,-0.4325,-0.4336,-0.4351,-0.4365,-0.4368,-0.4373,-0.4375,-0.4378,-0.4366,-0.4365,-0.4364,-0.436,-0.4376,-0.4376,-0.439,-0.439,-0.439]},{"header":{"parameterUnit":"m.s-1","parameterCategory":1,"la1":30.2991,"la2":30.254,"lo1":-89.0895,"lo2":-89.0444,"dy":0.0017,"dx":0.0017,"nx":28,"ny":28,"refTime":"2025-11-22T09:00:00:Z","depth":0,"parameterNumber":3,"parameterNumberName":"V-component_of_WINDS"},"data":[0,0,0,0,0,0,0,0,0,0,0,0,0,0,0,0,0,0,0,0,0,0,0,0,0,0,0,0,0,0,0,0,0,0,0,0,0,0,0,0,0,0,0,0,0,0,0,0,0,0,0,0,0,0,0,0,0,0,-2.9611,-2.9611,0,-2.9559,-2.9559,-2.9558,-2.9487,-2.9486,-2.9485,-2.9483,-2.9431,-2.9431,-2.9431,0,0,0,0,0,0,0,0,0,0,0,0,0,-2.9647,-2.9647,-2.9611,-2.9611,-2.961,-2.956,-2.9559,-2.9558,-2.9487,-2.9486,-2.9484,-2.9483,-2.9431,-2.9431,-2.9431,0,0,0,0,0,0,0,0,0,0,0,0,0,-2.9617,-2.9647,-2.9611,-2.9569,-2.9564,-2.956,-2.9559,-2.9558,-2.9487,-2.9486,-2.9484,-2.9482,-2.9431,-2.9431,-2.9431,-2.9464,0,0,-2.9429,-2.9429,0,0,0,0,0,0,0,0,-2.9619,-2.9616,-2.9575,-2.9571,-2.9567,-2.9528,-2.9552,-2.9527,-2.9488,-2.9517,-2.9483,-2.9481,-2.9465,-2.9462,-2.9456,-2.9462,-2.946,-2.9429,-2.9429,-2.9429,-2.9429,0,0,0,0,0,0,0,-2.9621,-2.9618,-2.9591,-2.9575,-2.957,-2.9551,-2.9545,-2.9547,-2.9502,-2.9514,-2.9509,-2.9503,-2.9462,-2.9456,-2.9454,-2.9459,-2.9429,-2.9429,-2.9429,-2.9429,-2.9486,-2.9488,0,0,0,0,0,0,-2.963,-2.962,-2.9592,-2.9589,-2.9589,-2.9552,-2.9545,-2.9542,-2.9501,-2.9493,-2.9505,-2.95,-2.9458,-2.9455,-2.9452,-2.9486,-2.9429,-2.9429,-2.9428,-2.9484,-2.9486,-2.9488,0,0,0,0,0,0,-2.9631,-2.9628,-2.9594,-2.9603,-2.9598,-2.9553,-2.9551,-2.9542,-2.9536,-2.9495,-2.9486,-2.9508,-2.9456,-2.9453,-2.9461,-2.9483,-2.9428,-2.9428,-2.9482,-2.9485,-2.9487,-2.9557,0,0,0,0,0,0,-2.9632,-2.9629,-2.9642,-2.9604,-2.9597,-2.9605,-2.9552,-2.9542,-2.9536,-2.9529,-2.9495,-2.9487,-2.9455,-2.9462,-2.946,-2.9482,-2.9428,-2.948,-2.9483,-2.9487,-2.9552,-2.9561,-2.9569,0,0,0,0,0,-2.9634,-2.9664,-2.9643,-2.964,-2.9612,-2.9606,-2.9603,-2.9564,-2.9538,-2.955,-2.9522,-2.9488,-2.9481,-2.9463,-2.9461,-2.9483,-2.9478,-2.9482,-2.9486,-2.9548,-2.956,-2.9569,0,0,0,0,0,0,-2.9707,-2.9659,-2.9634,-2.9653,-2.9634,-2.9594,-2.9609,-2.9578,-2.9566,-2.956,-2.9513,-2.9506,-2.952,-2.9502,-2.9483,-2.9511,-2.9475,-2.9478,-2.9522,-2.9533,-2.9541,-2.9545,-2.9427,0,0,0,0,0,-2.9725,-2.9724,-2.9682,-2.9703,-2.9695,-2.9653,-2.9649,-2.9621,-2.96,-2.9591,-2.9565,-2.9545,-2.9538,-2.9535,-2.9526,-2.9549,-2.9539,-2.9563,-2.9572,-2.9579,-2.9582,-2.959,-2.9599,-2.9501,-2.9501,-2.9501,0,0,-2.9763,-2.9736,-2.9739,-2.9717,-2.9699,-2.9698,-2.9647,-2.965,-2.9648,-2.9592,-2.9597,-2.9577,-2.9552,-2.9567,-2.9572,-2.9553,-2.9607,-2.9584,-2.959,-2.9589,-2.9595,-2.9605,-2.9613,-2.9504,-2.9504,-2.9503,0,0,-2.9831,-2.9812,-2.9825,-2.9808,-2.9781,-2.9753,-2.9756,-2.972,-2.9704,-2.9709,-2.9665,-2.9663,-2.9653,-2.9636,-2.9626,-2.9685,-2.9652,-2.9683,-2.9728,-2.9736,-2.9744,-2.975,-2.9769,-2.9776,-2.9687,-2.9687,-2.9687,0,-2.9881,-2.9879,-2.9837,-2.9841,-2.9831,-2.9779,-2.9792,-2.9777,-2.9749,-2.9743,-2.9722,-2.9705,-2.9685,-2.9694,-2.9708,-2.9703,-2.9703,-2.9687,-2.9746,-2.9752,-2.9758,-2.9775,-2.9782,-2.9691,-2.9691,-2.969,-2.969,0,-2.9941,-2.994,-2.9954,-2.9927,-2.9919,-2.9928,-2.9886,-2.9883,-2.9855,-2.9829,-2.9833,-2.9806,-2.979,-2.979,-2.9764,-2.9795,-2.9783,-2.9755,-2.9716,-2.9771,-2.9787,-2.9793,-2.9696,-2.9695,-2.9694,-2.9693,0,0,-3.0054,-3.0002,-3.0008,-2.9993,-2.9958,-2.9956,-2.9962,-2.9945,-2.9942,-2.9924,-2.9926,-2.9917,-2.989,-2.9878,-2.9849,-2.9857,-2.9902,-2.9827,-2.9825,-2.984,-2.9931,-2.9952,-2.9961,-2.988,-2.9881,-2.9882,-2.9933,0,-3.0114,-3.012,-3.0081,-3.0097,-3.0094,-3.0044,-3.0048,-3.0026,-3.0002,-2.9995,-2.9968,-2.9961,-2.9926,-2.9919,-2.9924,-2.9895,-2.9919,-2.9891,-2.988,-2.988,-2.9887,-2.9969,-2.9991,-3.004,-2.9939,-2.994,-2.994,0,-3.0186,-3.0169,-3.0185,-3.0147,-3.0144,-3.0149,-3.0128,-3.0123,-3.0097,-3.0078,-3.0064,-3.003,-3.0031,-2.9995,-2.9995,-2.9977,-2.997,-2.9955,-2.9956,-2.9952,-2.9913,-2.9966,-3.0055,-3.0062,-2.995,-2.9949,-2.9948,0,-3.0264,-3.0247,-3.0253,-3.0242,-3.0199,-3.0202,-3.0184,-3.0156,-3.0148,-3.013,-3.0124,-3.0107,-3.0098,-3.0085,-3.0047,-3.0025,-3.005,-3.0012,-3.0033,-3.0034,-3.004,-3.004,-3.0128,-3.0039,-3.0039,-3.0038,-3.0038,0,-3.0334,-3.0345,-3.0287,-3.0291,-3.0301,-3.0255,-3.0266,-3.0243,-3.0218,-3.0215,-3.0171,-3.017,-3.012,-3.0112,-3.0082,-3.0085,-3.0081,-3.0065,-3.0057,-3.0068,-3.007,-3.0062,-3.0057,-3.004,-3.004,-3.004,-3.0039,0,-3.0424,-3.0385,-3.0388,-3.0346,-3.0335,-3.0344,-3.0307,-3.0308,-3.028,-3.0277,-3.0274,-3.0229,-3.0218,-3.0178,-3.0157,-3.0137,-3.0148,-3.0133,-3.0157,-3.0151,-3.0174,-3.0172,-3.0259,-3.0267,-3.0175,-3.0176,-3.0176,0,-3.0471,-3.0477,-3.0435,-3.043,-3.0413,-3.0406,-3.0396,-3.0351,-3.0343,-3.0312,-3.0316,-3.0301,-3.0286,-3.027,-3.0235,-3.0218,-3.0202,-3.0233,-3.0199,-3.0209,-3.0199,-3.0199,-3.0198,-3.0241,-3.0242,-3.0243,-3.0244,0,-3.0557,-3.0537,-3.0525,-3.0506,-3.0495,-3.0478,-3.0459,-3.0457,-3.0406,-3.0399,-3.0386,-3.0375,-3.0352,-3.0337,-3.0313,-3.0294,-3.026,-3.0255,-3.0258,-3.027,-3.0282,-3.0273,-3.0176,-3.0253,-3.0252,-3.0251,-3.0251,-3.025,-3.0625,-3.0628,-3.0597,-3.0585,-3.0565,-3.0547,-3.0545,-3.0515,-3.0504,-3.0481,-3.0455,-3.0445,-3.0416,-3.0381,-3.0364,-3.0354,-3.0336,-3.0342,-3.0343,-3.0345,-3.0349,-3.0285,-3.035,-3.035,-3.0349,-3.0349,-3.0349,0,-3.0707,-3.0685,-3.0674,-3.0646,-3.0636,-3.0605,-3.058,-3.0573,-3.0565,-3.054,-3.0526,-3.051,-3.0494,-3.0457,-3.0438,-3.0437,-3.0421,-3.0433,-3.0432,-3.0427,-3.0368,-3.0366,-3.0446,-3.0446,-3.0446,-3.0446,-3.0446,-3.0446,-3.0749,-3.0751,-3.0727,-3.0718,-3.0695,-3.0684,-3.0672,-3.0655,-3.0635,-3.0618,-3.0605,-3.0581,-3.0551,-3.0528,-3.0511,-3.0501,-3.0495,-3.0512,-3.0497,-3.0441,-3.0432,-3.0423,-3.0421,-3.0512,-3.0512,-3.0556,-3.0557,-3.0557]}]]